Dewpoint
73 74 73 73 73 72 72 72 73 73 73 74 72 72 73 74 74 73 72 71 71 68 65 64 62 62 64 63 60 62 64 69 70 71 71 73 74 75 76 75 75 75 74 74 74 73 73 73 72 73 73 73 73 74 74 74 74 74 75 75 75 75 76 76 76 76 76 76 75 75 76 76 76 76 76 76 76 76 76 76 76 76 75 75 75
72 73 73 72 72 72 72 71 72 73 74 73 74 74 74 74 73 72 72 70 70 66 69 63 62 62 63 61 61 60 61 68 70 70 71 72 74 76 76 76 75 75 75 74 74 74 74 74 73 73 73 74 74 74 74 75 75 75 75 75 76 76 76 76 76 76 76 76 76 77 76 76 76 76 76 76 76 76 76 76 76 76 76 76 76
71 72 72 72 71 71 71 71 72 72 73 73 75 74 74 74 73 74 72 71 71 72 72 68 61 62 64 61 60 60 62 63 70 70 70 71 72 75 76 76 75 75 75 75 74 74 75 74 74 74 74 75 75 75 75 75 75 75 76 76 76 76 76 77 77 77 77 77 77 77 77 77 77 77 77 77 77 77 77 77 76 75 75 75 75
70 70 72 71 71 72 71 71 71 72 73 73 73 73 73 72 73 74 73 73 71 69 69 70 63 62 63 61 61 61 63 64 67 71 71 71 72 73 74 75 76 75 76 75 75 75 74 74 75 75 75 75 75 75 75 75 75 75 76 76 76 77 77 77 78 77 77 77 77 77 77 77 77 77 77 78 78 77 75 74 74 74 74 74 74
71 71 74 71 71 72 71 72 72 72 73 71 72 73 73 72 74 76 73 72 71 68 68 68 65 63 61 61 61 63 64 64 62 69 69 69 70 72 73 74 75 76 75 75 75 75 75 75 75 75 75 75 74 75 76 76 76 76 76 77 77 78 77 77 77 77 77 77 77 77 77 77 77 77 77 77 76 75 74 74 74 73 73 73 73
71 71 72 71 71 71 71 71 73 73 74 77 76 77 75 75 73 73 75 74 70 68 68 65 64 67 64 57 60 62 63 60 59 65 68 68 69 70 71 72 73 74 75 76 76 76 76 75 75 76 75 75 76 76 76 76 76 77 77 77 78 78 77 77 77 77 77 77 77 77 77 77 77 77 77 77 76 74 74 74 74 74 73 72 71
73 74 70 70 69 70 71 71 72 76 76 77 75 75 75 73 76 73 71 71 71 71 69 66 63 63 68 65 57 62 65 58 58 60 64 68 68 68 69 70 72 73 74 74 77 77 77 76 76 76 76 76 76 76 77 77 77 77 77 78 78 78 78 78 78 78 78 78 78 77 77 77 77 77 76 76 76 74 73 73 72 72 71 72 71
75 76 70 71 69 71 72 75 76 76 77 77 78 74 73 77 76 74 72 72 74 69 69 67 63 63 62 64 66 71 62 64 62 60 60 67 69 70 70 70 71 71 75 73 73 75 77 77 77 76 77 76 76 77 77 77 78 78 78 78 78 78 78 78 78 78 79 78 78 78 77 77 77 77 76 76 75 74 73 72 72 71 72 71 71
76 77 75 73 71 70 73 74 77 76 75 75 75 77 74 73 74 76 75 73 72 70 68 67 68 64 62 60 64 68 67 66 68 59 62 65 67 69 71 72 73 76 74 71 71 72 75 77 77 77 77 78 78 77 78 78 77 78 78 78 77 78 78 78 78 79 79 78 78 78 77 77 77 76 76 75 75 74 73 73 72 72 72 71 71
76 77 76 76 71 71 75 77 77 76 76 75 74 75 75 74 74 75 77 76 74 71 70 67 64 61 61 59 65 67 66 67 70 71 61 61 63 66 68 70 74 75 74 71 70 71 72 75 77 77 78 78 78 78 78 79 79 78 78 78 78 78 78 78 79 79 79 78 78 78 78 77 77 77 76 76 75 74 74 73 72 73 72 72 71
76 78 76 74 74 74 75 76 77 76 75 75 75 76 77 75 74 74 75 75 75 74 72 70 62 58 57 60 65 67 66 65 70 66 62 61 61 64 64 67 68 69 71 72 71 71 70 70 71 73 74 77 78 79 79 80 80 79 79 77 77 77 78 79 79 79 79 78 78 78 77 77 77 76 76 75 75 75 74 73 73 73 73 72 71
76 78 77 76 75 74 75 76 77 77 75 74 74 75 76 75 75 75 73 74 73 72 71 68 66 61 64 63 64 65 63 67 65 66 67 62 64 64 63 64 63 64 67 71 73 71 68 70 72 70 72 73 75 78 79 80 79 80 79 78 78 78 78 79 79 79 79 79 78 78 78 77 77 76 76 75 75 75 74 73 73 73 73 72 72
76 77 77 77 76 76 76 76 77 77 76 75 75 75 76 76 77 76 76 73 72 71 68 69 64 60 68 63 62 65 69 67 61 61 58 60 59 63 63 63 62 63 64 67 73 71 70 71 71 71 72 73 74 77 78 78 79 79 79 79 78 78 78 79 79 79 79 79 78 78 78 78 77 77 76 76 76 75 75 73 73 73 73 72 72
77 77 76 75 76 76 76 75 77 76 77 76 76 77 77 77 76 75 77 74 72 72 68 68 66 60 62 62 62 63 65 62 60 61 58 58 59 62 62 60 60 63 63 66 68 70 72 73 74 73 73 74 75 74 73 75 77 79 81 80 79 79 79 79 79 78 79 78 78 78 78 77 77 77 77 76 76 75 75 75 74 73 73 72 72
76 77 76 77 77 76 76 76 77 78 76 75 76 75 76 75 75 73 73 74 74 72 70 65 63 66 66 64 60 61 63 63 63 61 59 58 56 57 59 58 58 61 62 63 65 67 69 70 70 67 70 75 76 74 73 75 74 78 78 78 79 79 79 79 79 79 79 79 79 79 78 78 78 77 77 77 76 76 75 75 74 74 73 72 72
75 75 74 75 77 77 76 76 76 78 77 76 76 75 75 75 75 75 74 70 70 69 70 72 67 70 62 64 61 63 64 66 67 64 59 58 56 52 54 56 56 58 62 59 62 65 64 64 65 67 70 75 74 74 74 74 76 80 81 80 78 78 79 79 80 80 79 79 79 79 79 78 78 78 78 78 77 76 76 76 76 75 73 72 72
74 74 76 76 77 76 77 77 78 78 78 76 76 76 75 74 74 75 74 72 70 72 72 69 68 71 71 66 63 62 62 62 61 68 66 55 52 50 59 55 56 59 62 61 62 65 62 62 65 71 72 73 72 72 75 76 76 78 79 80 79 77 77 79 79 79 79 80 80 79 79 79 79 78 78 78 78 77 77 76 76 75 74 73 72
73 73 76 76 75 75 75 76 77 77 78 76 76 75 73 74 73 74 74 74 73 73 71 72 71 75 73 69 66 60 62 65 63 58 64 70 59 55 55 53 56 62 63 62 62 61 64 62 68 69 73 72 73 72 74 75 77 76 78 77 80 78 77 77 78 79 79 79 80 80 80 79 79 79 79 79 78 78 78 77 77 75 74 73 72
71 74 75 76 76 76 75 76 77 77 77 77 76 76 74 73 76 76 75 77 75 71 70 71 71 72 67 68 71 72 72 66 62 66 60 65 65 63 54 54 54 57 61 59 60 60 62 64 66 68 70 71 72 72 72 74 75 77 80 80 78 80 78 77 77 78 78 79 80 80 80 79 79 79 79 79 79 78 78 77 77 76 75 73 72
70 74 75 76 76 76 76 77 76 76 76 78 77 75 76 76 76 77 79 77 74 73 71 72 71 69 71 69 69 70 68 66 70 62 63 62 62 66 60 57 57 56 59 57 57 60 62 64 64 67 69 70 71 71 71 71 72 73 76 79 80 80 79 78 77 77 78 78 79 79 79 79 79 79 78 79 79 79 78 78 77 76 75 74 73
71 74 74 75 77 76 77 77 76 76 77 77 76 75 74 75 76 76 75 75 76 77 74 71 72 70 70 70 71 70 69 67 65 68 64 63 64 62 60 60 63 63 58 57 62 64 62 61 66 65 69 72 72 72 71 73 72 76 76 75 80 79 78 78 77 77 78 79 78 78 79 79 79 79 79 79 79 79 79 79 78 77 76 75 73
72 73 74 75 76 76 77 76 76 75 76 76 74 75 76 75 75 76 76 75 76 76 76 74 72 73 70 75 69 71 70 69 65 64 65 66 61 61 62 58 59 63 68 62 60 62 62 60 63 64 68 69 69 71 72 73 75 70 76 77 78 78 78 78 78 78 79 79 79 78 78 78 78 78 78 79 79 79 79 79 79 78 76 75 74
72 74 74 74 75 77 76 76 76 77 78 76 77 75 75 74 75 76 76 75 77 76 75 74 72 73 69 68 69 69 68 66 64 69 64 62 65 63 64 67 61 61 64 66 69 62 62 62 60 62 70 69 72 76 77 72 75 73 76 75 76 77 78 78 78 78 79 78 78 78 78 78 78 78 78 79 79 79 79 79 79 78 77 76 74
73 73 73 72 75 75 77 75 77 77 77 78 76 77 76 76 77 77 77 77 76 77 76 73 72 72 72 69 68 67 68 68 65 66 65 67 68 65 64 66 66 63 63 66 68 61 65 64 63 67 68 71 73 75 78 76 78 77 76 76 75 76 78 78 78 78 77 77 76 77 78 78 78 78 78 78 78 78 77 77 77 78 77 76 75
75 72 71 71 76 75 75 75 77 76 76 76 76 76 76 77 77 76 78 76 78 76 77 75 73 72 70 70 71 68 69 69 69 66 69 70 66 65 66 69 65 66 65 63 62 66 66 66 66 67 68 71 75 75 74 73 71 75 74 74 74 75 77 79 78 77 76 76 76 76 76 76 77 76 76 75 76 76 77 77 77 77 77 77 75
73 73 72 72 75 75 76 76 78 77 77 77 77 77 77 77 77 76 74 77 78 76 75 75 74 73 72 71 70 71 72 70 70 67 68 68 68 66 68 71 68 67 68 68 69 66 70 67 66 69 74 73 75 74 73 72 71 77 77 75 73 74 77 78 78 78 77 76 75 75 75 76 77 78 77 77 77 77 77 77 77 77 77 77 76
73 74 75 74 74 76 76 76 78 78 78 78 78 78 77 78 77 76 75 76 77 77 75 74 72 72 71 71 73 70 71 72 69 68 70 70 70 72 70 66 66 69 68 69 69 67 65 67 69 70 75 80 78 75 74 74 72 77 76 73 72 75 76 76 77 77 77 76 76 76 76 76 76 77 77 78 77 77 77 77 77 77 77 77 76
73 75 75 74 74 76 77 76 76 78 78 77 77 77 77 77 77 77 77 77 76 75 76 76 74 73 72 72 71 69 70 71 71 70 73 74 73 73 73 69 64 65 69 69 70 69 69 67 69 73 74 75 77 77 75 74 71 75 75 71 73 76 75 75 75 76 75 74 74 75 75 75 75 76 77 78 77 77 77 77 77 77 77 77 77
74 74 73 74 74 75 76 75 76 77 77 77 76 76 77 76 77 76 76 74 76 75 76 76 75 74 72 72 71 72 72 73 71 73 73 73 74 75 72 74 72 67 67 67 68 68 69 69 67 69 76 76 76 77 74 71 73 74 71 72 72 72 73 73 74 73 73 73 73 73 74 74 74 75 77 77 77 77 77 77 77 77 77 77 77
73 72 72 73 75 77 75 75 76 76 76 76 76 77 76 76 76 76 75 76 76 77 77 77 75 74 74 73 71 74 72 72 71 72 75 75 75 74 75 73 73 70 70 66 67 69 70 71 70 69 74 71 71 74 76 74 74 72 70 71 72 71 71 71 71 71 71 71 72 72 73 73 74 75 75 76 76 75 75 76 76 76 76 76 77
74 76 73 74 75 74 75 75 76 76 76 75 75 76 76 76 75 76 75 76 75 76 76 76 75 74 73 72 76 74 75 74 74 72 74 74 73 74 74 74 74 72 72 69 66 70 73 70 72 71 71 71 71 71 70 72 72 71 70 72 73 73 72 72 70 70 70 70 70 71 72 72 72 72 72 72 73 73 73 74 76 75 76 76 76
72 75 73 73 74 74 75 74 75 75 75 75 75 76 76 76 74 76 75 77 75 75 75 74 73 73 73 73 74 73 73 75 73 73 75 76 74 73 74 75 74 76 73 70 67 68 73 73 73 73 73 71 71 70 72 72 70 73 72 74 72 73 71 68 69 69 69 69 69 70 70 71 70 70 70 71 71 72 72 75 76 75 75 76 76
72 72 73 72 73 73 72 73 72 73 74 74 74 75 75 75 75 75 74 75 75 75 75 75 74 73 73 73 74 74 75 73 73 73 72 71 74 75 75 77 75 75 73 71 69 69 72 75 74 73 72 72 71 71 71 70 69 69 72 70 72 69 66 66 68 67 67 68 68 69 69 69 69 69 69 70 70 71 72 72 73 73 74 75 75
72 72 74 72 73 72 72 72 72 73 74 75 74 74 75 75 75 74 74 75 74 75 74 74 75 74 74 74 74 75 75 74 73 71 70 70 70 71 75 73 73 74 74 71 71 71 70 73 73 75 74 73 71 73 70 69 69 72 70 69 69 68 66 65 67 66 67 67 68 69 69 69 68 67 68 69 69 70 70 70 70 70 72 73 72
71 72 72 72 73 73 72 73 72 74 74 74 74 73 74 75 74 73 72 75 74 74 74 74 74 73 73 73 74 75 74 72 72 72 71 69 73 71 71 73 72 73 75 74 73 72 72 72 74 73 72 73 72 70 71 71 71 71 69 68 68 66 66 67 67 65 66 67 66 67 68 68 67 67 67 67 68 68 68 68 67 67 68 69 68
70 71 72 71 73 73 73 73 75 73 74 73 73 73 73 74 74 74 73 75 75 75 74 73 73 73 73 72 72 72 72 72 73 72 72 72 70 76 73 74 73 73 74 76 75 72 73 72 73 73 73 71 71 71 71 72 71 70 69 69 69 69 68 67 67 66 65 66 66 66 68 68 67 66 65 66 66 65 65 65 64 64 64 66 67
69 70 72 73 75 75 73 74 73 73 74 73 73 73 73 73 74 73 73 74 75 74 74 74 76 74 73 71 71 72 71 70 71 73 72 71 70 70 71 73 72 75 76 76 75 74 73 72 72 73 73 73 73 72 72 71 71 69 69 71 71 70 69 69 69 67 66 65 65 65 65 65 66 65 65 65 65 64 64 64 64 63 63 63 64
69 70 71 71 75 74 73 73 73 73 73 74 74 74 73 72 73 73 73 74 73 73 73 73 73 74 73 74 74 73 73 72 71 71 72 71 74 72 71 71 72 74 74 73 74 74 73 72 71 71 71 71 71 71 71 69 67 66 66 67 68 70 71 70 71 69 67 64 64 65 66 65 65 63 65 65 65 64 64 63 64 64 63 62 61
69 69 70 70 73 73 73 73 73 74 73 74 74 74 74 73 72 73 73 74 74 73 73 73 73 72 73 72 73 72 71 72 71 71 71 71 70 70 72 72 74 73 72 72 72 73 73 72 71 71 69 70 70 68 68 69 69 69 68 69 67 70 72 72 69 70 68 68 68 68 68 67 68 67 65 64 65 64 63 63 63 64 64 63 60
69 69 69 69 71 72 72 72 73 74 74 74 74 75 75 73 73 73 73 73 74 74 73 74 74 73 72 72 71 71 71 71 71 71 72 71 72 71 71 71 73 73 73 73 72 71 70 71 70 69 69 69 70 70 71 70 69 68 71 69 67 69 69 70 69 70 71 71 70 69 69 68 68 69 67 67 68 67 66 66 67 68 67 65 62
69 69 69 69 69 70 71 72 72 73 73 74 74 74 75 74 74 73 73 73 73 73 72 72 71 72 72 71 70 69 71 77 77 77 76 75 71 71 74 74 73 72 72 72 71 71 71 71 71 71 70 70 70 69 68 67 65 64 67 71 70 70 71 71 72 73 73 71 71 71 71 71 71 71 71 71 71 71 70 68 68 69 68 65 63
71 70 69 69 68 69 69 71 72 72 73 72 73 73 75 74 73 73 72 73 73 73 72 72 72 72 71 71 70 73 73 72 73 75 76 77 76 71 70 72 72 72 72 72 71 70 70 69 69 69 69 68 68 67 66 67 66 70 70 70 69 71 72 72 72 73 74 73 73 72 72 72 71 71 72 72 72 72 71 71 70 69 68 65 64
73 72 70 70 70 70 69 70 71 74 72 73 71 66 67 73 73 71 70 72 73 73 74 73 72 73 72 71 71 71 76 76 74 76 76 76 76 75 75 76 75 71 70 70 70 70 70 70 71 70 69 67 67 67 68 68 67 71 70 70 71 71 71 70 71 72 74 74 72 71 71 71 72 72 72 72 72 72 72 71 68 68 66 65 64
72 72 71 72 70 71 73 73 71 71 73 72 66 64 64 65 70 72 71 71 73 73 72 72 72 72 71 70 69 67 70 74 73 75 77 77 76 75 75 74 74 76 74 70 69 68 68 67 68 69 69 69 69 69 68 68 69 70 70 72 72 71 72 71 70 70 72 73 71 71 71 72 73 73 73 73 73 72 70 68 66 66 65 65 64
73 73 73 73 73 72 71 70 71 72 70 68 64 63 63 63 65 70 71 71 69 70 71 71 71 71 71 71 71 71 69 70 75 72 72 72 75 74 74 74 75 74 70 70 71 70 68 69 69 69 68 68 67 68 71 72 72 72 72 72 72 72 72 71 70 70 71 72 72 72 71 72 73 73 73 73 72 71 71 69 67 67 66 65 64
72 72 72 72 73 73 73 72 71 69 70 66 61 61 62 63 64 67 67 69 67 66 66 68 69 70 72 72 72 73 74 74 75 76 76 74 75 75 74 72 72 73 75 71 70 70 72 70 69 68 68 69 68 70 74 73 72 72 72 70 71 71 71 70 71 72 73 74 73 72 71 72 73 72 70 70 71 71 72 69 66 67 65 64 63
73 73 73 73 72 71 71 70 69 68 68 64 61 62 62 63 65 70 66 68 71 70 71 70 72 71 70 71 72 73 74 74 74 75 73 74 75 76 75 75 74 73 74 74 74 74 72 71 71 70 70 70 70 71 71 70 70 71 72 72 72 72 72 73 73 73 73 74 73 71 69 70 70 70 70 71 71 72 72 68 67 66 65 65 64
73 75 75 74 73 72 71 70 70 68 66 59 60 60 61 62 64 70 68 70 70 71 70 71 72 72 72 72 72 73 74 70 69 68 72 75 75 74 74 74 75 75 74 73 69 69 73 73 73 72 71 71 69 71 71 71 70 71 73 73 73 72 72 71 71 72 72 73 74 72 69 69 71 71 70 71 71 71 72 72 68 68 67 67 66
73 73 73 73 73 73 72 72 71 70 68 60 57 58 60 61 68 73 73 72 72 71 73 73 73 73 74 73 72 73 73 69 65 61 66 75 74 74 74 74 74 73 72 72 68 66 66 65 64 64 63 63 62 62 61 62 67 69 70 71 71 71 71 71 71 71 71 72 72 73 71 71 71 71 71 71 71 71 71 71 72 69 67 67 67
71 72 73 72 72 73 73 72 71 70 66 60 57 57 57 60 69 73 74 74 74 74 74 74 73 73 74 76 75 71 69 67 61 61 65 73 72 72 72 72 71 71 71 71 71 71 69 69 69 69 68 66 66 65 66 64 63 67 71 71 72 72 71 71 71 71 71 71 72 74 71 71 71 72 71 71 71 71 71 71 72 71 68 68 67
71 71 71 71 71 72 72 72 73 69 66 63 56 57 57 58 68 72 75 74 74 74 73 73 74 73 73 74 74 72 69 65 58 59 62 71 71 71 71 71 71 71 70 69 70 70 71 71 71 71 72 73 74 74 74 74 74 75 73 72 72 72 71 71 71 70 69 70 72 74 71 71 71 71 71 71 70 71 71 72 72 72 72 72 73